Back to catalog

O3B PFM

AliveCommunicationsMEO
NORAD 39191·PAYLOAD·🇱🇺 Luxembourg

Launched Jun 25, 2013 from Guiana Space Centre

Loading…

Next Passes (next 24 hours)

TLE

FreshSource: CelesTrak SupGP

Epoch: Sep 13, 2026, 22:59 UTC

1 39191C 13031D   26256.95833333  .00000000  00000+0  00000+0 0  2563
2 39191   0.0616 338.5685 0004911 169.9077 153.9004  5.00116171    15

Track O3B PFM in real time with AllMySat

Download on the App Store